This is the latest recevied weather packets stored in our database for station/object W6UA-13. If no packets are shown the sender has not sent any weather packets the latest 10 day(s).
| Time | Temp. | Humidity | Pressure | Rain* | Wind** | Luminosity | Snow |
|---|---|---|---|---|---|---|---|
| 1777354495 | 11.11° C | 81% | 1018.4 hPa | 0 mm | - | 0 W/m² | - |
| 1777353595 | 11.67° C | 81% | 1018.5 hPa | 0 mm | - | 0 W/m² | - |
| 1777352695 | 11.67° C | 80% | 1018.5 hPa | 0 mm | - | 0 W/m² | - |
| 1777351795 | 11.67° C | 79% | 1018.4 hPa | 0 mm | - | 0 W/m² | - |
| 1777350895 | 12.22° C | 79% | 1018.1 hPa | 0 mm | - | 0 W/m² | - |
| 1777349995 | 12.22° C | 78% | 1018 hPa | 0 mm | - | 0 W/m² | - |
| 1777349095 | 12.22° C | 76% | 1017.8 hPa | 0 mm | - | 0 W/m² | - |
| 1777348195 | 12.22° C | 74% | 1017.7 hPa | 0 mm | - | 0 W/m² | - |
| 1777347295 | 12.78° C | 73% | 1017.5 hPa | 0 mm | - | 0 W/m² | - |
| 1777346395 | 12.78° C | 71% | 1017.2 hPa | 0 mm | - | 0 W/m² | - |
| 1777345495 | 13.33° C | 69% | 1017.5 hPa | 0 mm | - | 0 W/m² | - |
| 1777344595 | 13.33° C | 68% | 1017.5 hPa | 0 mm | - | 0 W/m² | - |
| 1777343695 | 13.89° C | 68% | 1017.2 hPa | 0 mm | - | 11 W/m² | - |
| 1777342795 | 14.44° C | 65% | 1017.1 hPa | 0 mm | - | 21 W/m² | - |
| 1777341895 | 15° C | 60% | 1017.3 hPa | 0 mm | - | 60 W/m² | - |
| 1777340995 | 15.56° C | 59% | 1017.4 hPa | 0 mm | - | 120 W/m² | - |
| 1777340095 | 15.56° C | 57% | 1017.5 hPa | 0 mm | - | 158 W/m² | - |
| 1777339195 | 16.11° C | 55% | 1017.6 hPa | 0 mm | - | 167 W/m² | - |
| 1777338295 | 16.67° C | 53% | 1017.6 hPa | 0 mm | - | 200 W/m² | - |
| 1777337395 | 17.78° C | 51% | 1017.5 hPa | 0 mm | - | 295 W/m² | - |
| 1777336495 | 18.33° C | 51% | 1017.5 hPa | 0 mm | - | 225 W/m² | - |
| 1777335595 | 18.33° C | 54% | 1017.2 hPa | 0 mm | - | 427 W/m² | - |
| 1777334695 | 18.33° C | 53% | 1017 hPa | 0 mm | - | 364 W/m² | - |
| 1777333795 | 17.78° C | 57% | 1016.9 hPa | 0 mm | - | 524 W/m² | - |
| 1777333249 | 17.78° C | 55% | 1016.9 hPa | 0 mm | - | 566 W/m² | - |
* Rain latest hour (hover to see other rain measurements)
** Current wind speed in m/s (hover to see current wind gust speed)